User: anonymous   Login
Location: Oronoko Observatory
(41.9167°N, 86.3833°W)
Time: 16:03:00
(UTC-05:00)
Language:

PAYLOAD A - Orbit

View from above orbital plane
View from above orbital plane
View from above satellite
View from above satellite

Ground track
Ground track

The orbit data is extracted from the following two-line orbital elements,

1 27840U 03031A   14327.18666300  .00000062  00000-0  32171-4 0  7034
2 27840 098.2232 349.3409 0099392 063.9647 025.4896 14.38745668598578
Epoch (UTC): 23 November 2014 04:28:47
Eccentricity: 0.0099392
inclination: 98.2232°
perigee height: 691 km
apogee height: 833 km
right ascension of ascending node: 349.3409°
argument of perigee: 63.9647°
revolutions per day: 14.38745668
mean anomaly at epoch: 25.4896°
orbit number at epoch: 59857

The dashed part of the orbit path shows where the satellite is in the earth's shadow,  

DLR